Hourly Data Report for December 25, 2018

TORONTO CITY
ONTARIO
Current Station Operator: ECCC - MSC

43°40'00.000" N
79°24'00.000" W
112.50 m
6158355
71508
XTO

Download Data

Hourly Data (December 2018)
Hourly Data Report for December 25, 2018
TIME
LST
Temp Definition
°C
Dew Point Definition
°C
Rel Hum Definition
%
Precip. Amount Definition
mm

Wind Dir Definition
10's deg

Wind Spd Definition
km/h
Visibility Definition
km
Stn Press Definition
kPa
Hmdx Definition


Wind Chill Definition


Weather Definition


00:00 -0.6 -5.8 68 0.0 LegendMM LegendMM   100.87     LegendNANA
01:00 -0.4 -5.4 69 0.0 LegendMM LegendMM   100.92     LegendNANA
02:00 -0.3 -5.0 70 0.0 LegendMM LegendMM   100.97     LegendNANA
03:00 -0.5 -5.0 71 0.0 LegendMM LegendMM   101.04     LegendNANA
04:00 -0.6 -4.5 75 0.0 LegendMM LegendMM   101.05     LegendNANA
05:00 -0.5 -4.3 75 0.0 LegendMM LegendMM   101.08     LegendNANA
06:00 -0.7 -4.4 76 0.0 LegendMM LegendMM   101.15     LegendNANA
07:00 -0.8 -4.2 78 0.0 LegendMM LegendMM   101.20     LegendNANA
08:00 -1.3 -5.1 75 0.0 LegendMM LegendMM   101.25     LegendNANA
09:00 -1.4 -6.0 71 0.0 LegendMM LegendMM   101.30     LegendNANA
10:00 -0.7 -5.9 68 0.0 LegendMM LegendMM   101.35     LegendNANA
11:00 -0.1 -5.6 67 0.0 LegendMM LegendMM   101.34     LegendNANA
12:00 0.5 -6.2 61 0.0 LegendMM LegendMM   101.27     LegendNANA
13:00 1.0 -6.7 56 0.0 LegendMM LegendMM   101.22     LegendNANA
14:00 1.0 -6.8 56 0.0 LegendMM LegendMM   101.22     LegendNANA
15:00 0.5 -4.7 68 0.0 LegendMM LegendMM   101.27     LegendNANA
16:00 0.2 -4.4 72 0.0 LegendMM LegendMM   101.29     LegendNANA
17:00 0.3 -4.3 71 0.0 LegendMM LegendMM   101.31     LegendNANA
18:00 -0.1 -3.2 80 0.0 LegendMM LegendMM   101.32     LegendNANA
19:00 0.4 -2.5 81 0.2 LegendMM LegendMM   101.35     LegendNANA
20:00 0.5 -2.6 79 0.0 LegendMM LegendMM   101.34     LegendNANA
21:00 0.7 -3.5 73 0.0 LegendMM LegendMM   101.34     LegendNANA
22:00 0.4 -5.6 64 0.0 LegendMM LegendMM   101.35     LegendNANA
23:00 0.0 -6.3 62 0.0 LegendMM LegendMM   101.38     LegendNANA

Notes on Data Quality.

Legend

  • E = Estimated
  • M = Missing
  • NA = Not Available*
  • [empty] = Indicates an unobserved value
Date modified: